• In Hungary
  • List of Countries
  • For 7 days
  • Water Temperature
  • Satellite Maps
  • Weather Map
  • News
  • Weather Widgets
  • user-avatar
    Login

    Hourly Weather Puerto Ayora

    Today, 23 February, Friday

    Time Temperature Precipitation Wind Pressure Humidity
    00:00 +28°C° 0 mm 3 mps 756 mmHg 80%
    01:00 +28°C° 0.4 mm 3 mps 756 mmHg 80%
    02:00 +28°C° 0.4 mm 3 mps 756 mmHg 80%
    03:00 +28°C° 0.4 mm 3 mps 755 mmHg 80%
    04:00 +28°C° 0 mm 2 mps 755 mmHg 81%
    05:00 +28°C° 0 mm 2 mps 755 mmHg 81%
    06:00 +27°C° 0 mm 2 mps 756 mmHg 81%
    07:00 +28°C° 0 mm 2 mps 756 mmHg 79%
    08:00 +28°C° 0 mm 2 mps 756 mmHg 76%
    09:00 +29°C° 0 mm 2 mps 757 mmHg 74%
    10:00 +29°C° 0 mm 2 mps 757 mmHg 72%
    11:00 +30°C° 0 mm 2 mps 757 mmHg 69%
    12:00 +30°C° 0 mm 2 mps 756 mmHg 67%
    13:00 +30°C° 0 mm 2 mps 756 mmHg 67%
    14:00 +30°C° 0 mm 2 mps 756 mmHg 67%
    15:00 +30°C° 0 mm 2 mps 755 mmHg 67%
    16:00 +30°C° 0.2 mm 2 mps 755 mmHg 69%
    17:00 +30°C° 0.2 mm 2 mps 755 mmHg 71%
    18:00 +29°C° 0.2 mm 2 mps 755 mmHg 73%
    19:00 +29°C° 0.2 mm 2 mps 755 mmHg 75%
    20:00 +29°C° 0.2 mm 2 mps 756 mmHg 76%
    21:00 +28°C° 0.2 mm 2 mps 756 mmHg 77%
    22:00 +28°C° 0 mm 1 mps 756 mmHg 78%
    23:00 +28°C° 0 mm 1 mps 756 mmHg 78%

    Tomorrow, 24 February, Saturday

    Time Temperature Precipitation Wind Pressure Humidity
    00:00 +28°C° 0 mm 1 mps 756 mmHg 79%
    01:00 +28°C° 0.1 mm 1 mps 756 mmHg 79%
    02:00 +28°C° 0.1 mm 1 mps 755 mmHg 80%
    03:00 +28°C° 0.1 mm 1 mps 755 mmHg 80%
    04:00 +28°C° 0 mm 1 mps 755 mmHg 80%
    05:00 +27°C° 0 mm 1 mps 755 mmHg 80%
    06:00 +27°C° 0 mm 1 mps 756 mmHg 80%
    07:00 +28°C° 0 mm 1 mps 756 mmHg 78%
    08:00 +28°C° 0 mm 1 mps 756 mmHg 76%
    09:00 +29°C° 0 mm 1 mps 757 mmHg 74%
    10:00 +29°C° 0 mm 1 mps 757 mmHg 72%
    11:00 +30°C° 0 mm 1 mps 757 mmHg 69%
    12:00 +30°C° 0 mm 1 mps 757 mmHg 67%
    13:00 +31°C° 0 mm 1 mps 756 mmHg 66%
    14:00 +31°C° 0 mm 1 mps 756 mmHg 65%
    15:00 +31°C° 0 mm 2 mps 755 mmHg 64%
    16:00 +30°C° 0.1 mm 2 mps 755 mmHg 67%
    17:00 +30°C° 0.1 mm 2 mps 755 mmHg 69%
    18:00 +29°C° 0.1 mm 2 mps 755 mmHg 72%
    19:00 +29°C° 0.1 mm 2 mps 755 mmHg 73%
    20:00 +29°C° 0.1 mm 1 mps 756 mmHg 74%
    21:00 +28°C° 0.1 mm 1 mps 756 mmHg 76%
    22:00 +28°C° 0 mm 1 mps 757 mmHg 76%
    23:00 +28°C° 0 mm 1 mps 757 mmHg 77%

    Day after tomorrow, 25 February, Sunday

    Time Temperature Precipitation Wind Pressure Humidity
    00:00 +26°C° 0 mm 0 mps 757 mmHg 78%
    01:00 +28°C° 0 mm 1 mps 756 mmHg 78%
    02:00 +28°C° 0 mm 1 mps 756 mmHg 79%
    03:00 +28°C° 0 mm 1 mps 755 mmHg 79%
    04:00 +28°C° 0 mm 1 mps 755 mmHg 79%
    05:00 +25°C° 0 mm 0 mps 756 mmHg 79%
    06:00 +25°C° 0 mm 0 mps 756 mmHg 80%
    07:00 +26°C° 0 mm 0 mps 756 mmHg 78%
    08:00 +26°C° 0 mm 0 mps 757 mmHg 76%
    09:00 +26°C° 0 mm 0 mps 757 mmHg 75%
    10:00 +29°C° 0 mm 1 mps 757 mmHg 73%
    11:00 +29°C° 0 mm 1 mps 757 mmHg 70%
    12:00 +30°C° 0 mm 1 mps 757 mmHg 68%
    13:00 +30°C° 0.1 mm 1 mps 756 mmHg 68%
    14:00 +30°C° 0.1 mm 1 mps 756 mmHg 68%
    15:00 +30°C° 0.1 mm 2 mps 755 mmHg 68%
    16:00 +29°C° 0.2 mm 1 mps 755 mmHg 69%
    17:00 +29°C° 0.2 mm 1 mps 755 mmHg 71%
    18:00 +28°C° 0.2 mm 1 mps 755 mmHg 73%
    19:00 +28°C° 0.5 mm 1 mps 756 mmHg 74%
    20:00 +28°C° 0.5 mm 1 mps 757 mmHg 75%
    21:00 +28°C° 0.5 mm 1 mps 757 mmHg 76%
    22:00 +26°C° 0.1 mm 0 mps 757 mmHg 77%
    23:00 +26°C° 0.1 mm 0 mps 757 mmHg 78%

    26 February, Monday

    Time Temperature Precipitation Wind Pressure Humidity
    00:00 +26°C° 0.1 mm 0 mps 757 mmHg 80%
    01:00 +26°C° 0 mm 0 mps 757 mmHg 80%
    02:00 +25°C° 0 mm 0 mps 756 mmHg 79%
    03:00 +25°C° 0 mm 0 mps 756 mmHg 79%
    04:00 +25°C° 0 mm 0 mps 756 mmHg 79%
    05:00 +25°C° 0 mm 0 mps 756 mmHg 79%
    06:00 +25°C° 0 mm 0 mps 756 mmHg 79%
    07:00 +26°C° 0 mm 0 mps 757 mmHg 77%
    08:00 +26°C° 0 mm 0 mps 757 mmHg 75%
    09:00 +28°C° 0 mm 1 mps 758 mmHg 73%
    10:00 +29°C° 0 mm 1 mps 758 mmHg 70%
    11:00 +30°C° 0 mm 1 mps 758 mmHg 67%
    12:00 +30°C° 0 mm 1 mps 757 mmHg 64%
    13:00 +30°C° 0 mm 1 mps 756 mmHg 63%
    14:00 +30°C° 0 mm 1 mps 756 mmHg 63%
    15:00 +31°C° 0 mm 2 mps 755 mmHg 63%
    16:00 +30°C° 0 mm 2 mps 755 mmHg 65%
    17:00 +30°C° 0 mm 2 mps 755 mmHg 67%
    18:00 +29°C° 0 mm 2 mps 755 mmHg 70%
    19:00 +29°C° 0 mm 2 mps 756 mmHg 72%
    20:00 +29°C° 0 mm 1 mps 756 mmHg 74%
    21:00 +28°C° 0 mm 1 mps 757 mmHg 77%
    22:00 +28°C° 0 mm 1 mps 757 mmHg 77%
    23:00 +28°C° 0 mm 1 mps 757 mmHg 78%

    27 February, Tuesday

    Time Temperature Precipitation Wind Pressure Humidity
    00:00 +28°C° 0 mm 1 mps 757 mmHg 78%
    01:00 +28°C° 0 mm 1 mps 756 mmHg 78%
    02:00 +28°C° 0 mm 1 mps 756 mmHg 78%
    03:00 +27°C° 0 mm 2 mps 755 mmHg 79%
    04:00 +27°C° 0 mm 2 mps 755 mmHg 79%
    05:00 +27°C° 0 mm 2 mps 756 mmHg 79%
    06:00 +27°C° 0 mm 2 mps 756 mmHg 79%
    07:00 +28°C° 0 mm 2 mps 756 mmHg 78%
    08:00 +28°C° 0 mm 1 mps 757 mmHg 76%
    09:00 +28°C° 0 mm 1 mps 758 mmHg 74%
    10:00 +29°C° 0 mm 1 mps 757 mmHg 71%
    11:00 +30°C° 0 mm 1 mps 757 mmHg 67%
    12:00 +30°C° 0 mm 1 mps 757 mmHg 64%
    13:00 +30°C° 0 mm 1 mps 756 mmHg 64%
    14:00 +31°C° 0 mm 2 mps 755 mmHg 63%
    15:00 +31°C° 0 mm 2 mps 754 mmHg 63%
    16:00 +30°C° 0 mm 2 mps 754 mmHg 65%
    17:00 +30°C° 0 mm 2 mps 754 mmHg 68%
    18:00 +29°C° 0 mm 2 mps 755 mmHg 71%
    19:00 +29°C° 0.1 mm 2 mps 755 mmHg 72%
    20:00 +29°C° 0.1 mm 3 mps 756 mmHg 74%
    21:00 +28°C° 0.1 mm 3 mps 756 mmHg 76%
    22:00 +28°C° 0 mm 3 mps 756 mmHg 77%
    23:00 +28°C° 0 mm 3 mps 756 mmHg 77%

    28 February, Wednesday

    Time Temperature Precipitation Wind Pressure Humidity
    00:00 +28°C° 0 mm 3 mps 756 mmHg 78%
    01:00 +28°C° 0 mm 3 mps 755 mmHg 78%
    02:00 +28°C° 0 mm 3 mps 755 mmHg 78%
    03:00 +27°C° 0 mm 3 mps 754 mmHg 78%
    04:00 +27°C° 0.2 mm 3 mps 755 mmHg 78%
    05:00 +27°C° 0.2 mm 3 mps 755 mmHg 78%
    06:00 +27°C° 0.2 mm 3 mps 755 mmHg 78%
    07:00 +28°C° 0.1 mm 3 mps 755 mmHg 77%
    08:00 +28°C° 0.1 mm 3 mps 756 mmHg 75%
    09:00 +29°C° 0.1 mm 3 mps 756 mmHg 73%
    10:00 +29°C° 0 mm 3 mps 756 mmHg 71%
    11:00 +30°C° 0 mm 3 mps 756 mmHg 68%
    12:00 +30°C° 0 mm 3 mps 755 mmHg 66%
    13:00 +30°C° 0 mm 3 mps 755 mmHg 67%
    14:00 +30°C° 0 mm 3 mps 754 mmHg 67%
    15:00 +30°C° 0 mm 3 mps 753 mmHg 67%
    16:00 +30°C° 0.3 mm 3 mps 754 mmHg 69%
    17:00 +29°C° 0.3 mm 4 mps 754 mmHg 72%
    18:00 +29°C° 0.3 mm 4 mps 754 mmHg 74%
    19:00 +29°C° 0.1 mm 4 mps 755 mmHg 75%
    20:00 +28°C° 0.1 mm 4 mps 755 mmHg 76%
    21:00 +28°C° 0.1 mm 4 mps 756 mmHg 77%
    22:00 +28°C° 0 mm 4 mps 755 mmHg 77%
    23:00 +28°C° 0 mm 3 mps 755 mmHg 77%
    Show more